THOR ABLESTAR DEB *, 13502

Orbit data source: Space-Track

THOR ABLESTAR DEB *, 13502 is space debris in LEO originally from a launch on Thu, 29 Jun 1961 UTC launched from the Air Force Eastern Test Range (AFETR). Debris objects in space refer to the collection of defunct objects orbiting the Earth. Examples of debris include non-operational satellites, rocket bodies, and fragments generated from explosions, collisions, or faulty payload assembly.

Loading next visibility...
Identifier
13502, 1961-015KT
Orbit
LEO
Country
Flag of USUS
Related business
Manufacturer
Unknown
Mission
Spacecraft
Bus & Motor
Unknown
Mass
Unknown
Launch date (UTC)
1961-06-29 (64 years ago)
Launch vehicle
Unknown
Launch site
Air Force Eastern Test Range (AFETR)
Object type
Payload
Rocket body
Debris
Shape & HBR
Unknown shape, 0.1 m
Radar Cross Section
Small (<0.1 m²)

Expand to show TLE details & history
Last TLE update: 15 hours ago

TLE from 15 hours ago
0 THOR ABLESTAR DEB *
1 13502U 61015KT  25286.71331028  .00004676  00000-0  41092-2 0  9993
2 13502  66.4467  51.0470 0235847  22.9531 115.3306 13.74342105116865
Epoch: 2025-10-13T17:07Z
TLE epoch observation values (Epoch: 2025-10-13T17:07:10.008Z)
Latitude
35.58188°
Longitude
-66.33287°
Altitude
1,065.515 km
Speed
7.284 km/s
True Right ascension
14h 11m 53s
True Declination
35° 25' 34"
Sunlit
Object was in daylight at epoch
Visualization orbit readout
Latitude
Unknown
Longitude
Unknown
Altitude
Unknown
Speed
Unknown
Apparent Right ascension
Unknown
Apparent Declination
Unknown
Sunlit
N/A
Visualization observer readout
Local Sidereal Time
02:54:08
Azimuth
Unknown
Elevation
Unknown
Doppler factor
Unknown
Orbital elements
Apogee altitude
1,156.066 km
Perigee altitude
808.871 km
Semi-major axis
7,360.606 km
Eccentricity
0.02358
Inclination
66.4467°
RAAN
51.047°
Arg. of periapsis
22.9531°
True anomaly
117.74221°
Mean anomaly
115.3306°
Eccentric anomaly
116.53951°
Mean motion
3.43695 °/min
Orbital period
104.74 mins
BSTAR
0.0041092

Documentation

Showing up to 5 results
|